Weather History for Curtin, WE

Change the Weather History Date:

Tuesday, June 18, 2013

  Actual Average Record
Temperature  
Mean Temperature 78 °F -  
Max Temperature 90 °F - - ()
Min Temperature 65 °F - - ()
Cooling Degree Days 12    
Growing Degree Days 28 (Base 50)    
Moisture  
Dew Point 49 °F    
Average Humidity 38    
Maximum Humidity 60    
Minimum Humidity 14    
Precipitation  
Precipitation 0.00 in - - ()
Sea Level Pressure  
Sea Level Pressure 29.85 in    
Wind  
Wind Speed 7 mph ()    
Max Wind Speed 10 mph    
Max Gust Speed -    
T = Trace of Precipitation, MM = Missing Value Source: Averaged Metar Reports

Daily Weather History Graph

Daily Weather History Graph

Search for Another Location

Airport:

Trip Planner

Search our weather history database for the weather conditions in past years. The results will help you decide how hot, cold, wet, or windy it might be!

Date:

Astronomy

Jun. 18, 2013 Rise Set
Actual Time 6:13 AM WST 5:18 PM WST
Civil Twilight 5:49 AM WST 5:41 PM WST
Nautical Twilight 5:22 AM WST 6:08 PM WST
Astronomical Twilight 4:55 AM WST 6:35 PM WST
Moon 12:40 PM WST (6/18) 12:33 AM WST (6/18)
Length of Visible Light 11h 52m
Length of Day
11h 04m
Waxing Gibbous, 65% of the Moon is Illuminated
Jun 18
Waxing Gibbous
Jun 23
Full
Jun 30
Last Quarter
Jul 8
New
Jul 16
First Quarter

Hourly Weather History & Observations

Time (WST) Temp. Heat Index Dew Point Humidity Pressure Visibility Wind Dir Wind Speed Gust Speed Precip Events Conditions
12:00 AM 68 °F - 53 °F 50% 29.86 in - SSE 6.9 mph - -  
12:00 AM 68.0 °F - 53.6 °F 60% 29.86 in - SSE 6.9 mph - N/A   Unknown
1:00 AM 66.2 °F - 51.8 °F 60% 29.86 in - SE 5.8 mph - N/A   Unknown
2:00 AM 69.8 °F - 48.2 °F 46% 29.83 in - SE 8.1 mph - N/A   Unknown
3:00 AM 69 °F - 47 °F 35% 29.82 in - SE 8.1 mph - -  
3:00 AM 69.8 °F - 48.2 °F 46% 29.80 in - SE 8.1 mph - N/A   Unknown
4:00 AM 68.0 °F - 46.4 °F 46% 29.80 in - SE 9.2 mph - N/A   Unknown
5:00 AM 68.0 °F - 46.4 °F 46% 29.83 in - SE 8.1 mph - N/A   Unknown
6:00 AM 66 °F - 47 °F 38% 29.85 in - SE 8.1 mph - -  
6:00 AM 66.2 °F - 46.4 °F 49% 29.83 in - SE 8.1 mph - N/A   Unknown
7:00 AM 66.2 °F - 46.4 °F 49% 29.86 in - SSE 9.2 mph - N/A   Unknown
8:00 AM 71.6 °F - 48.2 °F 43% 29.89 in - SE 10.4 mph - N/A   Unknown
9:00 AM 77 °F - 48 °F 26% 29.89 in - SE 10.4 mph - -  
9:00 AM 77.0 °F - 48.2 °F 36% 29.89 in - SE 10.4 mph - N/A   Unknown
10:00 AM 82.4 °F - 48.2 °F 30% 29.89 in - ESE 10.4 mph - N/A   Unknown
11:00 AM 87.8 °F - 50.0 °F 27% 29.86 in - East 8.1 mph - N/A   Unknown
12:00 PM 89 °F - 47 °F 14% 29.84 in - NE 8.1 mph - -  
12:00 PM 89.6 °F - 46.4 °F 22% 29.83 in - NE 8.1 mph - N/A   Unknown
1:00 PM 89.6 °F - 44.6 °F 21% 29.80 in - NE 4.6 mph - N/A   Unknown
2:00 PM 89.6 °F - 46.4 °F 22% 29.80 in - North 8.1 mph - N/A   Unknown
3:00 PM 90 °F - 48 °F 15% 29.79 in - North 3.5 mph - -  
3:00 PM 89.6 °F - 48.2 °F 24% 29.77 in - North 3.5 mph - N/A   Unknown
4:00 PM 86.0 °F - 48.2 °F 27% 29.80 in - WNW 3.5 mph - N/A   Unknown
5:00 PM 80.6 °F 80.3 °F 53.6 °F 39% 29.83 in - West 4.6 mph - N/A   Unknown
6:00 PM 73 °F - 56 °F 45% 29.84 in - WSW 4.6 mph - -  
6:00 PM 73.4 °F - 55.4 °F 53% 29.83 in - WSW 4.6 mph - N/A   Unknown
7:00 PM 69.8 °F - 55.4 °F 60% 29.86 in - SW 4.6 mph - N/A   Unknown
8:00 PM 73.4 °F - 53.6 °F 50% 29.89 in - South 9.2 mph - N/A   Unknown
9:00 PM 74 °F - 44 °F 24% 29.90 in - South 8.1 mph - -  
9:00 PM 75.2 °F - 44.6 °F 34% 29.89 in - South 8.1 mph - N/A   Unknown
10:00 PM 73.4 °F - 42.8 °F 33% 29.89 in - South 9.2 mph - N/A   Unknown
11:00 PM 73.4 °F - 44.6 °F 36% 29.89 in - South 10.4 mph - N/A   Unknown